Location: Unspecified
(0.0000°N, 0.0000°E)
Time: 19:09:41
(UTC+00:00)

Hubble Space Telescope - Pass Details

Date: 16 February 2024
Orbit: 515 x 519 km, 28.5° (Epoch: 02 March)

Event Time Altitude Azimuth Distance (km) Brightness Sun altitude
Rises 18:54:42 0° 233° (SW) 2,628 5.6 -9.9°
Reaches altitude 10° 18:56:59 10° 229° (SW) 1,740 4.4 -10.5°
Maximum altitude 19:00:56 57° 150° (SSE) 609 0.9 -11.4°
Enters shadow 19:03:41 18° 75° (ENE) 1,292 2.0 -12.1°
